Atlanta, NE

3:10 PM CDT on August 25, 2016 (GMT -0500)
Brewster

Weather History for KHDE - February, 2013

Change the Weather History Date:

Wednesday, February 20, 2013

  Actual Average Record
Temperature  
Mean Temperature 18 °F -  
Max Temperature 23 °F 44 °F 72 °F (1972)
Min Temperature 12 °F 21 °F 0 °F (1959)
Degree Days  
Heating Degree Days 48    
Moisture  
Dew Point 11 °F    
Average Humidity 73    
Maximum Humidity 90    
Minimum Humidity 45    
Precipitation  
Precipitation 0.01 in - - ()
Sea Level Pressure  
Sea Level Pressure 30.08 in    
Wind  
Wind Speed 17 mph (ESE)    
Max Wind Speed 22 mph    
Max Gust Speed 29 mph    
Visibility 6 miles    
Events Snow    
Averages and records for this station are not official NWS values.
T = Trace of Precipitation, MM = Missing Value Source: NWS Daily Summary

Daily Weather History Graph

Daily Weather History Graph

Search for Another Location

Airport or City:

Trip Planner

Search our weather history database for the weather conditions in past years. The results will help you decide how hot, cold, wet, or windy it might be!

Date:

Astronomy

Feb. 20, 2013 Rise Set
Actual Time 7:23 AM CST 6:18 PM CST
Civil Twilight 6:56 AM CST 6:46 PM CST
Nautical Twilight 6:24 AM CST 7:18 PM CST
Astronomical Twilight 5:52 AM CST 7:49 PM CST
Moon 1:41 PM CST (2/20) 3:45 AM CST (2/20)
Length of Visible Light 11h 50m
Length of Day
10h 55m
Waxing Gibbous, 76% of the Moon is Illuminated
Feb 20
Waxing Gibbous
Feb 25
Full
Mar 4
Last Quarter
Mar 11
New
Mar 19
First Quarter

Hourly Weather History & Observations

Time (CST) Temp. Windchill Dew Point Humidity Pressure Visibility Wind Dir Wind Speed Gust Speed Precip Events Conditions
12:15 AM 19.4 °F 5.0 °F 3.9 °F 51% 30.20 in 10.0 mi East 16.1 mph - N/A   Clear
12:35 AM 19.0 °F 4.5 °F 4.1 °F 52% 30.20 in 10.0 mi East 16.1 mph - N/A   Clear
12:55 AM 18.3 °F 4.1 °F 4.1 °F 54% 30.19 in 10.0 mi East 15.0 mph - N/A   Clear
1:15 AM 17.4 °F 2.9 °F 4.1 °F 56% 30.19 in 10.0 mi East 15.0 mph - N/A   Clear
1:35 AM 17.1 °F 2.5 °F 3.7 °F 56% 30.18 in 10.0 mi East 15.0 mph - N/A   Clear
1:55 AM 16.7 °F 1.0 °F 3.7 °F 57% 30.17 in 10.0 mi East 17.3 mph 23.0 mph N/A   Scattered Clouds
2:15 AM 16.7 °F 0.1 °F 3.6 °F 56% 30.16 in 10.0 mi East 19.6 mph 24.2 mph N/A   Scattered Clouds
2:35 AM 16.3 °F 0.1 °F 4.1 °F 59% 30.16 in 10.0 mi East 18.4 mph 21.9 mph N/A   Scattered Clouds
2:55 AM 15.8 °F -0.6 °F 3.9 °F 60% 30.16 in 10.0 mi East 18.4 mph - N/A   Scattered Clouds
3:15 AM 15.6 °F 0.1 °F 4.1 °F 60% 30.16 in 10.0 mi East 16.1 mph - N/A   Clear
3:35 AM 15.4 °F -0.6 °F 3.9 °F 60% 30.15 in 10.0 mi East 17.3 mph - N/A   Clear
3:55 AM 14.9 °F -0.3 °F 3.9 °F 62% 30.14 in 10.0 mi East 15.0 mph - N/A   Scattered Clouds
4:15 AM 14.5 °F -1.8 °F 3.9 °F 63% 30.14 in 10.0 mi East 17.3 mph - N/A   Scattered Clouds
4:35 AM 14.0 °F -1.4 °F 3.9 °F 64% 30.13 in 10.0 mi East 15.0 mph - N/A   Mostly Cloudy
4:55 AM 13.6 °F -2.4 °F 3.7 °F 65% 30.13 in 10.0 mi East 16.1 mph - N/A   Mostly Cloudy
5:15 AM 13.5 °F -1.5 °F 3.4 °F 64% 30.13 in 10.0 mi East 13.8 mph - N/A   Scattered Clouds
5:35 AM 13.1 °F -2.0 °F 3.2 °F 65% 30.13 in 10.0 mi East 13.8 mph - N/A   Scattered Clouds
5:55 AM 12.9 °F -2.8 °F 3.2 °F 65% 30.13 in 10.0 mi East 15.0 mph - N/A   Scattered Clouds
6:15 AM 13.1 °F -0.7 °F 3.6 °F 66% 30.14 in 10.0 mi East 11.5 mph - N/A   Mostly Cloudy
6:35 AM 13.1 °F -0.7 °F 3.7 °F 66% 30.14 in 10.0 mi East 11.5 mph - N/A   Mostly Cloudy
6:55 AM 14.0 °F 0.5 °F 3.7 °F 64% 30.13 in 10.0 mi East 11.5 mph - N/A   Overcast
7:15 AM 14.0 °F 0.5 °F 3.2 °F 62% 30.15 in 10.0 mi ESE 11.5 mph - N/A   Mostly Cloudy
7:35 AM 13.6 °F 1.6 °F 3.6 °F 64% 30.15 in 10.0 mi ESE 9.2 mph - N/A   Clear
7:55 AM 14.4 °F 0.9 °F 4.3 °F 64% 30.15 in 10.0 mi ESE 11.5 mph - N/A   Scattered Clouds
8:15 AM 15.6 °F 0.6 °F 4.1 °F 60% 30.15 in 10.0 mi East 15.0 mph - N/A   Overcast
8:35 AM 16.0 °F 0.6 °F 3.2 °F 57% 30.15 in 10.0 mi ESE 16.1 mph - N/A   Overcast
8:55 AM 16.5 °F 0.3 °F 3.6 °F 57% 30.14 in 10.0 mi ESE 18.4 mph - N/A   Overcast
9:15 AM 16.7 °F 0.5 °F 3.9 °F 57% 30.13 in 10.0 mi ESE 18.4 mph - N/A   Overcast
9:35 AM 17.8 °F 2.4 °F 4.8 °F 57% 30.13 in 10.0 mi ESE 17.3 mph 21.9 mph N/A   Overcast
9:55 AM 19.8 °F 3.3 °F 4.5 °F 52% 30.13 in 10.0 mi ESE 21.9 mph 25.3 mph N/A   Overcast
10:15 AM 21.4 °F 5.8 °F 4.8 °F 49% 30.12 in 10.0 mi ESE 20.7 mph - N/A   Mostly Cloudy
10:35 AM 22.6 °F 7.9 °F 4.3 °F 45% 30.13 in 10.0 mi SE 19.6 mph - N/A   Overcast
10:55 AM 21.7 °F 7.5 °F 10.0 °F 61% 30.14 in 2.5 mi SE 17.3 mph 25.3 mph N/A Snow Light Snow
11:15 AM 22.8 °F 8.1 °F 12.6 °F 65% 30.13 in 3.0 mi SE 19.6 mph 24.2 mph N/A Snow Light Snow
11:35 AM 22.1 °F 8.0 °F 13.8 °F 70% 30.12 in 4.0 mi SE 17.3 mph 25.3 mph N/A Snow Light Snow
11:55 AM 22.1 °F 7.2 °F 15.1 °F 74% 30.12 in 2.5 mi ESE 19.6 mph - N/A Snow Light Snow
12:15 PM 22.1 °F 8.5 °F 14.9 °F 74% 30.11 in 5.0 mi ESE 16.1 mph - N/A   Haze
12:35 PM 21.2 °F 6.8 °F 14.5 °F 75% 30.10 in 4.0 mi ESE 17.3 mph - N/A   Haze
12:55 PM 21.2 °F 6.4 °F 14.9 °F 77% 30.08 in 5.0 mi ESE 18.4 mph - N/A   Haze
1:15 PM 20.8 °F 6.4 °F 15.6 °F 80% 30.08 in 3.0 mi ESE 17.3 mph - N/A   Haze
1:35 PM 21.2 °F 7.8 °F 16.7 °F 83% 30.07 in 1.5 mi ESE 15.0 mph - N/A Snow Light Snow
1:55 PM 22.1 °F 7.6 °F 18.5 °F 86% 30.06 in 1.2 mi ESE 18.4 mph - N/A Snow Light Snow
2:35 PM 23.0 °F 8.7 °F 19.2 °F 85% 30.04 in 3.0 mi ESE 18.4 mph 24.2 mph N/A Snow Light Snow
2:55 PM 23.4 °F 8.8 °F 19.6 °F 85% 30.02 in 1.2 mi ESE 19.6 mph - N/A Snow Light Snow
3:15 PM 23.9 °F 9.9 °F 20.3 °F 86% 30.01 in 1.2 mi ESE 18.4 mph - N/A Snow Light Snow
3:35 PM 23.9 °F 9.1 °F 20.3 °F 86% 30.00 in 1.0 mi ESE 20.7 mph - N/A Snow Light Snow
4:15 PM 23.7 °F 8.5 °F 20.3 °F 87% 30.00 in 1.2 mi ESE 21.9 mph - N/A Snow Light Snow
4:35 PM 23.0 °F 8.3 °F 19.9 °F 88% 29.99 in 1.2 mi East 19.6 mph - N/A Snow Light Snow
4:55 PM 22.1 °F 6.8 °F 19.2 °F 89% 29.99 in 1.2 mi East 20.7 mph - N/A Snow Light Snow
5:15 PM 22.1 °F 6.4 °F 19.0 °F 88% 29.99 in 1.0 mi East 21.9 mph 25.3 mph N/A Snow Light Snow
5:35 PM 21.2 °F 5.2 °F 18.3 °F 89% 29.98 in 0.2 mi East 21.9 mph - N/A Snow Snow
5:55 PM 20.8 °F 5.1 °F 18.1 °F 89% 29.98 in 2.0 mi East 20.7 mph - N/A Snow Light Snow
6:15 PM 20.8 °F 4.7 °F 18.0 °F 89% 29.98 in 2.5 mi East 21.9 mph - N/A Snow Light Snow
6:35 PM 20.8 °F 4.7 °F 18.0 °F 89% 29.98 in 3.0 mi East 21.9 mph 28.8 mph N/A Snow Light Snow
6:55 PM 20.8 °F 5.9 °F 18.0 °F 89% 29.99 in 3.0 mi East 18.4 mph - N/A Snow Light Snow
7:15 PM 20.8 °F 5.9 °F 17.6 °F 87% 30.00 in 4.0 mi East 18.4 mph - N/A Snow Light Snow
7:35 PM 20.8 °F 5.9 °F 17.6 °F 87% 30.00 in 2.5 mi East 18.4 mph - N/A Snow Light Snow
7:55 PM 20.5 °F 5.9 °F 17.4 °F 88% 30.01 in 2.0 mi East 17.3 mph - N/A Snow Light Snow
8:15 PM 20.3 °F 6.1 °F 17.2 °F 88% 30.01 in 3.0 mi East 16.1 mph - N/A Snow Light Snow
8:35 PM 20.7 °F 5.7 °F 17.2 °F 87% 30.01 in 4.0 mi East 18.4 mph - N/A Snow Light Snow
8:55 PM 20.8 °F 6.8 °F 17.6 °F 87% 30.02 in 2.5 mi East 16.1 mph - N/A Snow Light Snow
9:15 PM 20.3 °F 5.2 °F 17.4 °F 89% 30.01 in 1.5 mi East 18.4 mph - N/A Snow Light Snow
9:35 PM 20.1 °F 3.8 °F 17.2 °F 89% 30.01 in 1.5 mi East 21.9 mph 26.5 mph N/A Snow Light Snow
9:55 PM 19.9 °F 5.2 °F 17.2 °F 89% 30.02 in 1.0 mi East 17.3 mph - N/A Snow Snow
10:15 PM 19.8 °F 4.5 °F 17.1 °F 89% 30.02 in 1.0 mi East 18.4 mph 23.0 mph N/A Snow Snow
10:35 PM 19.9 °F 5.7 °F 17.2 °F 89% 30.02 in 0.8 mi East 16.1 mph - N/A Snow Snow
10:55 PM 20.3 °F 5.2 °F 17.8 °F 90% 30.02 in 1.2 mi ESE 18.4 mph - 0.01 in Snow Light Snow
11:15 PM 20.7 °F 4.9 °F 18.0 °F 89% 30.01 in 1.0 mi East 20.7 mph - N/A Snow Snow
11:35 PM 20.5 °F 5.5 °F 18.0 °F 90% 30.01 in 0.8 mi East 18.4 mph - N/A Snow Snow
11:55 PM 20.3 °F 6.1 °F 17.6 °F 89% 30.01 in 1.0 mi East 16.1 mph - N/A Snow Snow